Regional Weather Roundup
Issued by NWS

Home | Current Version | Previous Version | Graphics & Text | Print | Product List | Glossary On
Versions: 1 2 3 4 5 6 7 8 9 10 11 12 13 14 15 16 17 18 19 20 21 22 23 24 25 26 27 28 29 30 31 32 33 34 35 36 37 38 39 40 41 42 43 44 45 46 47 48 49 50
000
ASUS43 KMKX 241700
RWRWI

WISCONSIN REGIONAL WEATHER ROUNDUP
NATIONAL WEATHER SERVICE MILWAUKEE/SULLIVAN WI
1200 PM CDT FRI MAR 24 2017

NOTE: "FAIR" INDICATES FEW OR NO CLOUDS BELOW 12,000 FEET WITH NO
SIGNIFICANT WEATHER AND/OR OBSTRUCTIONS TO VISIBILITY.

WIZ001-002-006>008-014>016-023>028-241800-
NORTHWEST WISCONSIN

CITY           SKY/WX    TMP DP  RH WIND       PRES   REMARKS
SUPERIOR ARPT  CLOUDY    38  34  87 NE6       30.07R WCI  33
ASHLAND        CLOUDY    38  34  85 N10       30.06R WCI  31
HAYWARD        CLOUDY    40  33  76 NE14      30.03R WCI  32
SIREN          CLOUDY    40  34  80 N9        30.04R WCI  33
CUMBERLAND     CLOUDY    36  34  93 NE9       30.01R WCI  29
RICE LAKE      CLOUDY    37  35  93 N5        30.03R WCI  34
CHETEK         CLOUDY    36  36  99 N5        30.01R FOG     WCI  32
LADYSMITH      CLOUDY    37  35  94 N7        30.02R FOG     WCI  31
EAU CLAIRE     LGT RAIN  39  37  93 N5        30.00R FOG
MENOMONIE      DRIZZLE   40  37  92 N7        30.00R WCI  35
NEW RICHMOND   CLOUDY    38  37  99 N9        30.02R WCI  31
OSCEOLA        CLOUDY    40  40  99 N6        30.05R
$$

WIZ003>005-009-010-017-018-241800-
NORTH CENTRAL WISCONSIN

CITY           SKY/WX    TMP DP  RH WIND       PRES   REMARKS
MANITOWISH WTR CLOUDY    33  33 100 N5        29.99R FOG     WCI  28
ARBOR VITAE    CLOUDY    37  36  96 N3        29.99R FOG
WOODRUFF       CLOUDY    37  36  96 N3        29.99R FOG
RHINELANDER    LGT RAIN  36  35  96 VRB3      29.99R
EAGLE RIVER    LGT RAIN  33  33 100 N8        29.98R WCI  26
LAND O LAKES   FOG       33  33 100 N9        30.00R VSB 1   WCI  25
PHILLIPS       DRIZZLE   34  34 100 NE8       29.98R WCI  27
TOMAHAWK       RAIN      35  33  94 NE3       29.99R
MEDFORD        HVY RAIN  36  34  94 N8        29.95R WCI  29
MERRILL        RAIN      36  36 100 N5        29.98R WCI  32
$$

WIZ029-030-035-036-043>047-241800-
CENTRAL WISCONSIN

CITY           SKY/WX    TMP DP  RH WIND       PRES   REMARKS
WAUSAU         LGT RAIN  37  36  96 VRB6      29.95S FOG     WCI  32
MOSINEE        LGT RAIN  36  36 100 E5        29.96R FOG     WCI  32
MARSHFIELD     LGT RAIN  37  36  96 E8        29.94S FOG     WCI  31
STEVENS POINT  DRIZZLE   35  35 100 NE6       29.96S WCI  30
WAUPACA        LGT RAIN  39  36  89 N6        29.98R
WAUTOMA        CLOUDY    41  37  86 NE8       29.95S
WISC RAPIDS    CLOUDY    39  38  96 NE8       29.97R FOG     WCI  33
CAMP DOUGLAS   NOT AVBL
$$

WIZ011>013-019>022-031-037>040-048>050-241800-
NORTHEAST WISCONSIN

CITY           SKY/WX    TMP DP  RH WIND       PRES   REMARKS
ANTIGO         LGT RAIN  35  34  99 N7        29.97R WCI  29
SHAWANO        DRIZZLE   37  35  92 NE3       29.98R
OCONTO         CLOUDY    36  34  93 N3        29.99R
STURGEON BAY   LGT RAIN  35  34  96 N9        29.99R FOG     WCI  28
GREEN BAY      CLOUDY    40  36  86 N12       29.98R WCI  33
MANITOWOC      NOT AVBL
APPLETON       CLOUDY    39  37  93 N13       29.94R WCI  32
CLINTONVILLE   RAIN      36  34  93 CALM      29.98R
OSHKOSH        CLOUDY    43  36  76 N13       29.94R
$$

WIZ032>034-041-042-053>061-241800-
SOUTHWEST WISCONSIN

CITY           SKY/WX    TMP DP  RH WIND       PRES   REMARKS
LA CROSSE      LGT RAIN  42  40  92 NE10      29.91F FOG
SPARTA         DRIZZLE   41  40  95 N6        29.93F
VIROQUA        CLOUDY    44  41  89 NE7       29.90S
BOSCOBEL       PTSUNNY   56  44  64 VRB3      29.90S
PRAIRIE DU CHI CLOUDY    51  41  69 NW6       29.89R
PLATTEVILLE    CLOUDY    67  52  59 SW13      29.87S
$$

WIZ056-057-062-063-064-067-068-241800-
SOUTH CENTRAL WISCONSIN

CITY           SKY/WX    TMP DP  RH WIND       PRES   REMARKS
REEDSBURG      CLOUDY    48  42  79 N9        29.92R
BARABOO/DELLS  PTSUNNY   49  40  70 NE8       29.92R
LONE ROCK      NOT AVBL
MINERAL POINT  CLOUDY    63  52  67 W10       29.88R
MADISON        CLOUDY    60  48  64 N7        29.89R
MIDDLETON      CLOUDY    58  49  72 NE6       29.90R
WATERTOWN      CLOUDY    58  48  71 SW6       29.89S
MONROE         MOSUNNY   66  50  55 SW16      29.86F
JANESVILLE     PTSUNNY   70  48  46 SW12G17   29.87F
$$

WIZ051-052-058>065-066-070>072-241800-
SOUTHEAST WISCONSIN

CITY           SKY/WX    TMP DP  RH WIND       PRES   REMARKS
MILWAUKEE      PTSUNNY   56  43  61 NE9       29.90S
WAUKESHA       MOSUNNY   63  48  59 W15       29.90S
MILWAUKEE/TIMM MOSUNNY   61  43  51 N3        29.90S
RACINE         CLOUDY    68  49  50 SW15      29.90S
KENOSHA        CLOUDY    72  51  47 SW23G33   29.88F
FOND DU LAC    CLOUDY    46  39  76 N15       29.94R
SHEBOYGAN      CLOUDY    50  42  74 N6        29.93R
WEST BEND      CLOUDY    52  45  76 SW3       29.91R
JUNEAU         CLOUDY    53  45  74 CALM      29.92R
$$

LSZ147-162-241800-
LAKE SUPERIOR

STATION/POSITION TIME  TEMP    WIND        PRES    WAVE
                       AIR SEA DIR/SP/G            HT/PER
                 (UTC) (F)     (DEG/KT/KT) (MB)    (FT/S)
DEVILS ISLAND    1600   35      10/ 13/ 13 1018.2R
PORT WING        1630   36      40/  5/  7 1018.3R
SAXON HARBOR     1630   35        CALM     1017.6R
$$

LMZ867-665-643>646-241800-
LAKE MICHIGAN

STATION/POSITION TIME  TEMP    WIND        PRES    WAVE
                       AIR SEA DIR/SP/G            HT/PER
                 (UTC) (F)     (DEG/KT/KT) (MB)    (FT/S)
CHAMBERS ISLAND  1640   34     340/  5/  6 1015.2R
NORTHPORT PIER   1640   33     330/  4/  9 1015.2R
SISTER BAY       1620   34     360/ 12/ 13   N/A
KEWAUNEE LAKESHO 1624   41      20/  6/  8 1014.0
SHEBOYGAN LAKESH 1600   41      20/  3/  4 1013.3R
PORT WASHINGTON  1640   44      50/  2/  2 1013.9S
MILWAUKEE LAKESH 1630   39      40/ 10/ 11   N/A
KENOSHA   LAKESH 1600   46     100/  4/  6 1012.5
$$

TC  - TEMPERATURE IN CELSIUS
VSB - VISIBILITY IN STATUTE MILES
WCI - WIND CHILL INDEX
HX  - HEAT INDEX





USA.gov is the U.S. government's official web portal to all federal, state and local government web resources and services.